Regional Weather Roundup
Issued by NWS

Home | Current Version | Previous Version | Text Only | Print | Product List | Glossary On
Versions: 1 2 3 4 5 6 7 8 9 10 11 12 13 14 15 16 17 18 19 20 21 22 23 24 25 26 27 28 29 30 31 32 33 34 35 36 37 38 39 40 41 42 43 44 45 46 47 48 49 50
000
ASUS43 KLOT 280412
RWRIL

ILLINOIS REGIONAL WEATHER ROUNDUP
NATIONAL WEATHER SERVICE CHICAGO/ROMEOVILLE IL
1100 PM CDT FRI MAR 27 2015

NOTE: "FAIR" INDICATES FEW OR NO CLOUDS BELOW 12,000 FEET WITH NO
SIGNIFICANT WEATHER AND/OR OBSTRUCTIONS TO VISIBILITY.

* THESE STATIONS ARE NOT UNDER NWS QUALITY CONTROL. THEY ALSO MAY NOT
  REPORT WEATHER SUCH AS PRECIPITATION OR FOG.

ILZ001-002-007-009-015-016-024-280500-
NORTHWEST ILLINOIS

CITY           SKY/WX    TMP DP  RH WIND       PRES   REMARKS
MOLINE         CLEAR     23  13  65 E5        30.21R WCI  17
STERLING*      CLEAR     25  10  54 CALM      30.21S
SAVANNA*       CLEAR     22  16  76 E5        30.21S WCI  16
$$

ILZ003-004-008-010-011-017-018-280500-
NORTH CENTRAL ILLINOIS

CITY           SKY/WX    TMP DP  RH WIND       PRES   REMARKS
ROCKFORD       CLEAR     24  14  65 E6        30.23R WCI  17
FREEPORT*      CLEAR     21  11  66 CALM      30.22S
ROCHELLE*      CLEAR     22  17  81 E7        30.22R WCI  14
DE KALB*       CLEAR     19  13  79 E6        30.22R WCI  10
PERU*          CLEAR     26  16  67 E8        30.23R WCI  17
$$

ILZ005-006-012>014-019>023-280500-
NORTHEAST ILLINOIS

CITY           SKY/WX    TMP DP  RH WIND       PRES   REMARKS
CHICAGO-OHARE  PTCLDY    23  14  68 N5        30.21R WCI  17
CHICAGO-MIDWAY PTCLDY    27  14  58 N9        30.22R WCI  18
AURORA         FAIR      22  13  68 NE3       30.22S
LANSING*       CLEAR     26  11  54 N9        30.21S WCI  16
JOLIET*        CLEAR     25  15  67 CALM      30.23R
WAUKEGAN       CLEAR     19  13  77 NW3       30.21S
DUPAGE AIRPORT CLEAR     20  12  71 N5        30.21R WCI  13
KANKAKEE*      CLEAR     22  16  76 NE5       30.22S WCI  16
WHEELING       CLEAR     22  13  68 NW5       30.23R WCI  16
MORRIS*        CLEAR     22  16  78 CALM      30.22R
ROMEOVILLE*    CLEAR     22  14  71 NE3       30.22R
NORTHERLY ISL    N/A     27  14  58 N15         N/A  WCI  15
$$

LMZ740>746-280500-
SOUTHERN LAKE MICHIGAN

STATION/POSITION SKY/WX   TEMP    WIND        PRES    VSBY  WAVE
                          AIR SEA DIR/SP/G                  HT/PER
                          (F)     (DEG/KT/KT) (MB)    (MI)  (FT/S)
HARRISON CRIB              26     360/ 18/ 22   N/A
BURNHAM HARBOR             27     360/ 10/ 16   N/A
CALUMET HARBOR             26     360/ 12/ 18 1021.7R
BURNS HARBOR               26      20/ 19/ 26 1022.7R
MICHIGAN CITY              24     350/ 23/ 26   N/A
$$

ILZ025>027-034>036-040-047-049-050-058-095>099-280500-
WEST-CENTRAL ILLINOIS

CITY           SKY/WX    TMP DP  RH WIND       PRES   REMARKS
QUINCY         FAIR      31  10  41 E6        30.19S WCI  25
GALESBURG*     CLEAR     24  16  70 CALM      30.20R
MACOMB*        CLEAR     24  19  83 CALM      30.22S
JACKSONVILLE*  CLEAR     29  19  63 CALM      30.21R
PITTSFIELD*    CLEAR     31  20  64 CALM      30.21S
$$

ILZ028>032-037-038-041>044-048-051>054-059>061-280500-
CENTRAL ILLINOIS

CITY           SKY/WX    TMP DP  RH WIND       PRES   REMARKS
PONTIAC        CLEAR     23  19  85 E6        30.23R WCI  16
BLOOMINGTON    CLEAR     23  18  81 E8        30.21R WCI  14
DECATUR        CLEAR     26  16  65 N6        30.20R WCI  19
PEORIA         CLEAR     27  13  55 CALM      30.21S
LACON*         CLEAR     24  15  68 CALM      30.21S
LINCOLN*       CLEAR     27  18  69 CALM      30.22S
SPRINGFIELD    CLEAR     28  15  58 NE5       30.21R WCI  23
TAYLORVILLE    CLEAR     28  25  86 N5        30.21R WCI  23
$$

ILZ033-039-045-046-055>057-062-063-280500-
EAST-CENTRAL ILLINOIS

CITY           SKY/WX    TMP DP  RH WIND       PRES   REMARKS
CHAMPAIGN      FAIR      24  17  74 NE8       30.20R WCI  15
DANVILLE*      CLEAR     23  17  77 NE9       30.18R WCI  13
RANTOUL*       CLEAR     25  19  77 NE7       30.21R WCI  17
MATTOON        CLEAR     26  19  74 E8        30.18R WCI  18
PARIS*         CLEAR     26  18  72 NE3       30.21R
$$

ILZ079-100>102-280500-
SOUTHWEST ILLINOIS

CITY           SKY/WX    TMP DP  RH WIND       PRES   REMARKS
ALTON          CLEAR     31  21  67 CALM      30.21S
BELLEVILLE     CLEAR     32  20  62 NE2       30.20R
CAHOKIA*       CLEAR     32  21  64 E6        30.21R WCI  26
SPARTA*        FAIR      31  22  68 CALM      30.21R
$$

ILZ064>066-069>071-074>076-080>082-084>086-088>090-092>094-280500-
SOUTH-CENTRAL ILLINOIS

CITY           SKY/WX    TMP DP  RH WIND       PRES   REMARKS
CARBONDALE     CLEAR     29  24  82 W3        30.20R
CAIRO*         CLEAR     32  23  69 CALM      30.20S
EFFINGHAM*     CLEAR     30  17  58 N3        30.21S
MARION         FAIR      28  25  86 N5        30.20R WCI  23
MT. VERNON     CLEAR     28  18  64 N3        30.20R
CENTRALIA*     CLEAR     31  18  57 NE3       30.20S
SALEM*         CLEAR     32  20  61 CALM      30.20S
METROPOLIS*    CLEAR     31  26  81 CALM      30.19S
$$

ILZ067-068-072-073-078-083-087-091-280500-
SOUTHEAST ILLINOIS

CITY           SKY/WX    TMP DP  RH WIND       PRES   REMARKS
LAWRENCEVILLE  CLEAR     29  20  69 NE6       30.20R WCI  23
FLORA*         CLEAR     29  22  74 N3        30.21R
FAIRFIELD*     CLEAR     31  20  65 N3        30.19R
HARRISBURG*    CLEAR     32  20  62 N3        30.21R
ROBINSON*      CLEAR     27  19  73 NE5       30.21R WCI  21
CARMI*         CLEAR     30  23  73 N7        30.20R WCI  24
$$

ABBREVIATIONS USED IN REMARKS
   TC - TEMPERATURE IN CELSIUS
  WCI - WIND CHILL INDEX
   HX - HEAT INDEX
  VSB - VISIBILITY
$$



USA.gov is the U.S. government's official web portal to all federal, state and local government web resources and services.